Hourly Data Report for October 18, 2012

All times are specified in Local Standard Time (LST). Add 1 hour to adjust for Daylight Saving Time where and when it is observed.

ST LEONARD CS
NEW BRUNSWICK

47°09'28.050" N
67°49'55.014" W
245.00 m
810I001
71019
WIY

Download Data

Hourly Data (October 2012)
Hourly Data Report for October 18, 2012
Temp Definition
°C
Dew Point Temp Definition
°C
Rel Hum Definition
%
Wind Dir Definition
10's deg

Wind Spd Definition
km/h
Visibility Definition
km
Stn Press Definition
kPa
Hmdx Definition


Wind Chill Definition


Weather Definition


TIME
00:00 0.2 -2.0 85 34 4   98.54     LegendNANA
01:00 -1.5 -2.7 92   0   98.58     LegendNANA
02:00 -1.8 -2.5 95   0   98.60     LegendNANA
03:00 -2.0 -2.5 96   0   98.67     LegendNANA
04:00 -2.1 -2.5 97   0   98.78     LegendNANA
05:00 -2.9 -3.4 96   0   98.84     LegendNANA
06:00 -2.9 -3.4 96 8 2   98.87   -4 LegendNANA
07:00 -3.1 -3.6 96   0   98.90     LegendNANA
08:00 0.2 -1.2 90   0   98.98     LegendNANA
09:00 2.8 0.0 82 14 4   99.04     LegendNANA
10:00 3.6 0.5 80   0   99.06     LegendNANA
11:00 7.2 1.5 67 12 4   99.07     LegendNANA
12:00 9.6 2.5 61 14 6   99.04     LegendNANA
13:00 11.7 2.5 53 20 6   99.03     LegendNANA
14:00 13.2 1.1 44 16 7   98.99     LegendNANA
15:00 13.1 1.6 46 17 11   98.99     LegendNANA
16:00 13.1 2.0 47 16 11   98.97     LegendNANA
17:00 11.5 2.5 54 14 9   98.97     LegendNANA
18:00 10.1 2.7 60 16 7   99.03     LegendNANA
19:00 9.7 2.6 61 14 6   99.04     LegendNANA
20:00 9.3 2.2 61 13 6   99.05     LegendNANA
21:00 8.6 2.3 65 14 7   99.05     LegendNANA
22:00 8.1 2.3 67 14 7   99.07     LegendNANA
23:00 7.8 2.3 68 14 7   99.09     LegendNANA

Notes on Data Quality.

Legend

  • E = Estimated
  • M = Missing
  • NA = Not Available
  • ‡ = Partner data that is not subject to review by the National Climate Archives
Date modified: